This is the latest recevied weather packets stored in our database for station/object HI6LT. If no packets are shown the sender has not sent any weather packets the latest 1 day(s).
| Time | Temp. | Humidity | Pressure | Rain* | Wind** | Luminosity | Snow |
|---|---|---|---|---|---|---|---|
| 1778075370 | 15.56° C | 93% | 1037.7 hPa | 0 mm | - | - | - |
| 1778074357 | 16.67° C | 92% | 1037.9 hPa | 0 mm | - | - | - |
| 1778071300 | 15.56° C | 93% | 1037.7 hPa | 0 mm | - | - | - |
| 1778067697 | 13.33° C | 97% | 1037 hPa | 0 mm | - | - | - |
| 1778064106 | 12.22° C | 93% | 1036.2 hPa | 0 mm | - | - | - |
| 1778060865 | 12.78° C | 97% | 1036 hPa | 0 mm | - | - | - |
| 1778060505 | 12.78° C | 97% | 1036 hPa | 0 mm | - | - | - |
| 1778056903 | 12.78° C | 91% | 1035.6 hPa | 0 mm | - | - | - |
| 1778055462 | 14.44° C | 93% | 1035.4 hPa | 0 mm | - | - | - |
| 1778055102 | 14.44° C | 93% | 1035.4 hPa | 0 mm | - | - | - |
| 1778053301 | 12.78° C | 93% | 1035.1 hPa | 0 mm | - | - | - |
| 1778052759 | 12.78° C | 90% | 1034.9 hPa | 0 mm | - | - | - |
| 1778051499 | 14.44° C | 93% | 1035.2 hPa | 0 mm | - | - | - |
| 1778049927 | 13.89° C | 97% | 1035.7 hPa | 0 mm | - | - | - |
| 1778049697 | 13.89° C | 96% | 1035.6 hPa | 0 mm | - | - | - |
| 1778047906 | 13.89° C | 97% | 1035.7 hPa | 0 mm | - | - | - |
| 1778046104 | 13.89° C | 96% | 1035.7 hPa | 0 mm | - | - | - |
| 1778044664 | 14.44° C | 96% | 1036.2 hPa | 0 mm | - | - | - |
| 1778044303 | 14.44° C | 96% | 1036.2 hPa | 0 mm | - | - | - |
| 1778042502 | 15° C | 95% | 1036.6 hPa | 0 mm | - | - | - |
| 1778041962 | 15.56° C | 94% | 1036.7 hPa | 0 mm | - | - | - |
| 1778040702 | 15.56° C | 94% | 1036.6 hPa | 0 mm | - | - | - |
| 1778040668 | 16.67° C | 95% | 1037.4 hPa | 0 mm | - | - | - |
| 1778038900 | 16.11° C | 94% | 1036.8 hPa | 0 mm | - | - | - |
| 1778037099 | 16.67° C | 95% | 1037.4 hPa | 0 mm | - | - | - |
* Rain latest hour (hover to see other rain measurements)
** Current wind speed in m/s (hover to see current wind gust speed)